WAT826 VTCC-VTUV

Flight info

Callsign WAT826
Flight time 0h 58m
Altitude 37000
Route KABMU2S KABMU W15 UDN W5 SEDNO
Aircraft A320/M-SDE3FGHIRWY/LB1

Departure

Time 2026-05-05 13:35
Airport Chiang Mai International Airport (VTCC)

Arrival

Time 2026-05-05 14:33
Airport Roi Et Airport (VTUV)
Time Latitude Longitude Altitude Speed Heading
2026-05-05 13:20 18.76980 98.96737 1033 ft 0 kts 93°
2026-05-05 13:29 18.76980 98.96733 1032 ft 3 kts 92°
2026-05-05 13:29 18.76978 98.96706 1032 ft 4 kts 65°
2026-05-05 13:29 18.76963 98.96685 1032 ft 3 kts 35°
2026-05-05 13:29 18.76960 98.96683 1032 ft 0 kts 34°
2026-05-05 13:31 18.76963 98.96685 1032 ft 4 kts 29°
2026-05-05 13:31 18.77002 98.96675 1033 ft 5 kts 327°
2026-05-05 13:31 18.77023 98.96652 1033 ft 6 kts 312°
2026-05-05 13:32 18.77091 98.96586 1033 ft 17 kts 321°
2026-05-05 13:32 18.77177 98.96519 1034 ft 14 kts 348°
2026-05-05 13:32 18.77293 98.96517 1036 ft 21 kts
2026-05-05 13:32 18.77466 98.96518 1037 ft 28 kts 360°
2026-05-05 13:33 18.77666 98.96518 1039 ft 29 kts 360°
2026-05-05 13:33 18.77855 98.96519 1041 ft 27 kts
2026-05-05 13:33 18.78024 98.96519 1042 ft 17 kts
2026-05-05 13:33 18.78089 98.96458 1043 ft 16 kts 274°
2026-05-05 13:34 18.78081 98.96327 1043 ft 18 kts 244°
2026-05-05 13:34 18.77925 98.96292 1042 ft 45 kts 180°
2026-05-05 13:34 18.77364 98.96290 1035 ft 113 kts 180°
2026-05-05 13:34 18.76392 98.96287 1029 ft 164 kts 180°
2026-05-05 13:35 18.75221 98.96292 1520 ft 171 kts 180°
2026-05-05 13:35 18.74035 98.96310 2206 ft 170 kts 180°
2026-05-05 13:35 18.72852 98.96302 2882 ft 171 kts 181°
2026-05-05 13:35 18.71592 98.96278 3210 ft 191 kts 182°
2026-05-05 13:36 18.70195 98.96256 3484 ft 213 kts 181°
2026-05-05 13:36 18.68614 98.96227 3749 ft 240 kts 179°
2026-05-05 13:36 18.67057 98.96703 4580 ft 239 kts 146°
2026-05-05 13:36 18.66013 98.98100 5113 ft 255 kts 111°
2026-05-05 13:37 18.65816 98.99985 5774 ft 266 kts 87°
2026-05-05 13:37 18.66074 99.01955 6445 ft 275 kts 81°
2026-05-05 13:37 18.66415 99.03963 7132 ft 282 kts 80°
2026-05-05 13:37 18.66770 99.06004 7929 ft 284 kts 80°
2026-05-05 13:38 18.67068 99.08062 8736 ft 285 kts 85°
2026-05-05 13:38 18.67133 99.10186 9396 ft 293 kts 91°
2026-05-05 13:38 18.67071 99.12338 10160 ft 295 kts 92°
2026-05-05 13:38 18.66988 99.14589 10403 ft 318 kts 92°
2026-05-05 13:39 18.66919 99.17003 10592 ft 342 kts 91°
2026-05-05 13:39 18.66874 99.19571 10953 ft 356 kts 91°
2026-05-05 13:39 18.66848 99.22205 11537 ft 362 kts 90°
2026-05-05 13:39 18.66831 99.24873 12182 ft 366 kts 90°
2026-05-05 13:40 18.66823 99.27565 12833 ft 369 kts 90°
2026-05-05 13:40 18.66616 99.30271 13452 ft 373 kts 101°
2026-05-05 13:40 18.65849 99.32886 14034 ft 376 kts 115°
2026-05-05 13:40 18.64539 99.35271 14583 ft 378 kts 128°
2026-05-05 13:41 18.62773 99.37327 15115 ft 380 kts 136°
2026-05-05 13:41 18.60877 99.39285 15657 ft 383 kts 136°
2026-05-05 13:41 18.58965 99.41260 16196 ft 387 kts 136°
2026-05-05 13:41 18.57039 99.43254 16770 ft 390 kts 136°
2026-05-05 13:42 18.55125 99.45241 17285 ft 393 kts 136°
2026-05-05 13:42 18.53170 99.47270 17790 ft 396 kts 136°
2026-05-05 13:42 18.51197 99.49320 18281 ft 400 kts 136°
2026-05-05 13:42 18.49200 99.51391 18719 ft 404 kts 136°
2026-05-05 13:43 18.47206 99.53488 19149 ft 407 kts 133°
2026-05-05 13:43 18.45468 99.55849 19581 ft 410 kts 122°
2026-05-05 13:43 18.44058 99.58471 20006 ft 413 kts 119°
2026-05-05 13:43 18.42671 99.61131 20430 ft 416 kts 119°
2026-05-05 13:44 18.41266 99.63808 20839 ft 418 kts 119°
2026-05-05 13:44 18.39868 99.66461 21259 ft 421 kts 119°
2026-05-05 13:44 18.38442 99.69164 21676 ft 424 kts 119°
2026-05-05 13:44 18.37008 99.71885 22095 ft 426 kts 119°
2026-05-05 13:45 18.35565 99.74625 22486 ft 429 kts 119°
2026-05-05 13:45 18.34113 99.77381 22887 ft 432 kts 119°
2026-05-05 13:45 18.32654 99.80154 23268 ft 435 kts 119°
2026-05-05 13:45 18.31185 99.82944 23617 ft 437 kts 119°
2026-05-05 13:46 18.29707 99.85749 23928 ft 440 kts 119°
2026-05-05 13:46 18.28221 99.88573 24229 ft 442 kts 119°
2026-05-05 13:46 18.26727 99.91411 24547 ft 444 kts 119°
2026-05-05 13:46 18.25225 99.94262 24850 ft 447 kts 119°
2026-05-05 13:47 18.23717 99.97126 25157 ft 449 kts 119°
2026-05-05 13:47 18.22202 100.00003 25480 ft 451 kts 119°
2026-05-05 13:47 18.20679 100.02892 25787 ft 453 kts 119°
2026-05-05 13:47 18.19144 100.05798 26103 ft 455 kts 120°
2026-05-05 13:48 18.17604 100.08710 26408 ft 457 kts 119°
2026-05-05 13:48 18.16054 100.11639 26708 ft 458 kts 120°
2026-05-05 13:48 18.14480 100.14558 27005 ft 460 kts 122°
2026-05-05 13:48 18.12591 100.17270 27288 ft 461 kts 132°
2026-05-05 13:49 18.10327 100.19657 27578 ft 462 kts 138°
2026-05-05 13:49 18.07962 100.21955 27855 ft 464 kts 138°
2026-05-05 13:49 18.05608 100.24245 28132 ft 466 kts 138°
2026-05-05 13:49 18.03227 100.26569 28414 ft 468 kts 138°
2026-05-05 13:50 18.00838 100.28903 28699 ft 470 kts 138°
2026-05-05 13:50 17.98439 100.31247 28976 ft 472 kts 138°
2026-05-05 13:50 17.96026 100.33603 29231 ft 474 kts 138°
2026-05-05 13:50 17.93611 100.35956 29492 ft 476 kts 138°
2026-05-05 13:51 17.91179 100.38319 29744 ft 477 kts 138°
2026-05-05 13:51 17.88740 100.40692 29992 ft 479 kts 138°
2026-05-05 13:51 17.86293 100.43075 30201 ft 481 kts 138°
2026-05-05 13:51 17.83840 100.45467 30414 ft 482 kts 138°
2026-05-05 13:52 17.81379 100.47867 30618 ft 484 kts 138°
2026-05-05 13:52 17.78912 100.50274 30816 ft 485 kts 137°
2026-05-05 13:52 17.76437 100.52685 31037 ft 486 kts 137°
2026-05-05 13:52 17.73959 100.55094 31323 ft 485 kts 138°
2026-05-05 13:53 17.71486 100.57495 31644 ft 484 kts 138°
2026-05-05 13:53 17.69014 100.59892 31937 ft 484 kts 138°
2026-05-05 13:53 17.66548 100.62288 32221 ft 483 kts 138°
2026-05-05 13:53 17.64083 100.64682 32511 ft 483 kts 138°
2026-05-05 13:54 17.61620 100.67071 32816 ft 482 kts 138°
2026-05-05 13:54 17.59190 100.69426 33116 ft 481 kts 138°
2026-05-05 13:54 17.56730 100.71806 33428 ft 481 kts 138°
2026-05-05 13:54 17.54268 100.74184 33750 ft 480 kts 138°
2026-05-05 13:55 17.51813 100.76555 34047 ft 480 kts 138°
2026-05-05 13:55 17.49362 100.78922 34317 ft 479 kts 138°
2026-05-05 13:55 17.47741 100.80492 34494 ft 479 kts 138°
2026-05-05 13:55 17.45264 100.82893 34755 ft 478 kts 138°
2026-05-05 13:56 17.42857 100.85227 35019 ft 477 kts 138°
2026-05-05 13:56 17.40407 100.87624 35287 ft 476 kts 135°
2026-05-05 13:56 17.38330 100.90257 35532 ft 476 kts 123°
2026-05-05 13:56 17.36759 100.93296 35762 ft 475 kts 112°
2026-05-05 13:57 17.35768 100.96592 35975 ft 474 kts 101°
2026-05-05 13:57 17.35392 101.00010 36180 ft 473 kts 89°
2026-05-05 13:57 17.35628 101.03430 36368 ft 471 kts 81°
2026-05-05 13:57 17.36094 101.06824 36558 ft 471 kts 81°
2026-05-05 13:58 17.36554 101.10225 36771 ft 471 kts 81°
2026-05-05 13:58 17.37005 101.13619 36929 ft 471 kts 81°
2026-05-05 13:58 17.37892 101.20372 36969 ft 469 kts 81°
2026-05-05 13:59 17.39231 101.30536 36972 ft 469 kts 81°
2026-05-05 14:00 17.40575 101.40667 36975 ft 468 kts 81°
2026-05-05 14:00 17.41467 101.47426 36964 ft 468 kts 81°
2026-05-05 14:01 17.42350 101.54192 36952 ft 469 kts 81°
2026-05-05 14:01 17.43231 101.60953 36945 ft 469 kts 81°
2026-05-05 14:02 17.44104 101.67685 36941 ft 470 kts 81°
2026-05-05 14:02 17.44591 101.74498 36949 ft 471 kts 92°
2026-05-05 14:03 17.44189 101.81340 36949 ft 471 kts 92°
2026-05-05 14:03 17.43797 101.88183 36951 ft 471 kts 92°
2026-05-05 14:04 17.43401 101.95024 36948 ft 471 kts 92°
2026-05-05 14:04 17.43006 102.01868 36942 ft 471 kts 92°
2026-05-05 14:05 17.42607 102.08712 36946 ft 471 kts 92°
2026-05-05 14:05 17.42205 102.15557 36948 ft 471 kts 92°
2026-05-05 14:06 17.41801 102.22402 36954 ft 471 kts 92°
2026-05-05 14:06 17.41393 102.29254 36948 ft 471 kts 92°
2026-05-05 14:07 17.40984 102.36100 36951 ft 471 kts 92°
2026-05-05 14:07 17.40579 102.42951 36954 ft 472 kts 92°
2026-05-05 14:08 17.40165 102.49819 36946 ft 472 kts 93°
2026-05-05 14:08 17.39745 102.56674 36933 ft 472 kts 93°
2026-05-05 14:09 17.39327 102.63486 36937 ft 472 kts 92°
2026-05-05 14:09 17.38225 102.70217 36725 ft 472 kts 115°
2026-05-05 14:10 17.36516 102.73127 36469 ft 470 kts 131°
2026-05-05 14:10 17.34116 102.75427 36225 ft 468 kts 148°
2026-05-05 14:10 17.31220 102.76966 35984 ft 466 kts 163°
2026-05-05 14:10 17.28073 102.77627 35744 ft 461 kts 179°
2026-05-05 14:11 17.24874 102.77706 35506 ft 460 kts 181°
2026-05-05 14:11 17.21665 102.77748 35282 ft 460 kts 181°
2026-05-05 14:11 17.18461 102.77785 35057 ft 461 kts 181°
2026-05-05 14:11 17.15248 102.77825 34747 ft 461 kts 181°
2026-05-05 14:12 17.12010 102.77868 33788 ft 469 kts 181°
2026-05-05 14:12 17.08768 102.77912 32862 ft 473 kts 181°
2026-05-05 14:12 17.05501 102.77960 32336 ft 467 kts 180°
2026-05-05 14:12 17.02260 102.78007 31704 ft 465 kts 181°
2026-05-05 14:13 16.99030 102.78053 31072 ft 462 kts 181°
2026-05-05 14:13 16.95824 102.78098 30441 ft 460 kts 181°
2026-05-05 14:13 16.92634 102.78139 29832 ft 457 kts 181°
2026-05-05 14:13 16.89464 102.78179 29205 ft 453 kts 181°
2026-05-05 14:14 16.86319 102.78220 28629 ft 449 kts 181°
2026-05-05 14:14 16.83214 102.78266 28034 ft 445 kts 180°
2026-05-05 14:14 16.80128 102.78313 27461 ft 442 kts 180°
2026-05-05 14:14 16.77068 102.78359 26896 ft 438 kts 180°
2026-05-05 14:15 16.74032 102.78405 26345 ft 435 kts 180°
2026-05-05 14:15 16.71021 102.78449 25818 ft 431 kts 180°
2026-05-05 14:15 16.68037 102.78492 25294 ft 427 kts 180°
2026-05-05 14:15 16.65076 102.78535 24778 ft 424 kts 180°
2026-05-05 14:16 16.62141 102.78578 24269 ft 420 kts 180°
2026-05-05 14:16 16.59227 102.78622 23764 ft 417 kts 180°
2026-05-05 14:16 16.56333 102.78668 23203 ft 415 kts 180°
2026-05-05 14:16 16.53462 102.78729 22683 ft 411 kts 177°
2026-05-05 14:17 16.50675 102.79295 22178 ft 408 kts 161°
2026-05-05 14:17 16.48168 102.80650 21665 ft 407 kts 144°
2026-05-05 14:17 16.46151 102.82693 21150 ft 405 kts 127°
2026-05-05 14:17 16.44785 102.85242 20639 ft 403 kts 111°
2026-05-05 14:18 16.43821 102.87941 20106 ft 402 kts 110°
2026-05-05 14:18 16.42852 102.90666 19584 ft 401 kts 111°
2026-05-05 14:18 16.41882 102.93382 19059 ft 400 kts 111°
2026-05-05 14:18 16.40912 102.96093 18527 ft 399 kts 111°
2026-05-05 14:19 16.39943 102.98798 18059 ft 397 kts 111°
2026-05-05 14:19 16.38979 103.01481 17502 ft 395 kts 111°
2026-05-05 14:19 16.38019 103.04144 17006 ft 392 kts 111°
2026-05-05 14:19 16.37073 103.06773 16434 ft 382 kts 111°
2026-05-05 14:20 16.36161 103.09317 15937 ft 368 kts 111°
2026-05-05 14:20 16.35283 103.11768 15462 ft 355 kts 111°
2026-05-05 14:20 16.34425 103.14164 15018 ft 353 kts 111°
2026-05-05 14:20 16.33562 103.16569 14558 ft 354 kts 111°
2026-05-05 14:21 16.32701 103.18975 14096 ft 355 kts 111°
2026-05-05 14:21 16.31837 103.21386 13617 ft 355 kts 111°
2026-05-05 14:21 16.30990 103.23737 13125 ft 343 kts 111°
2026-05-05 14:21 16.30161 103.26032 12679 ft 337 kts 111°
2026-05-05 14:22 16.29496 103.28370 12213 ft 338 kts 100°
2026-05-05 14:22 16.29341 103.30786 11882 ft 328 kts 88°
2026-05-05 14:22 16.29426 103.33133 11367 ft 322 kts 88°
2026-05-05 14:22 16.29507 103.35405 11025 ft 308 kts 88°
2026-05-05 14:23 16.29584 103.37587 10690 ft 296 kts 88°
2026-05-05 14:23 16.29659 103.39720 10281 ft 291 kts 88°
2026-05-05 14:23 16.29730 103.41828 10185 ft 291 kts 88°
2026-05-05 14:23 16.29800 103.43932 10065 ft 290 kts 88°
2026-05-05 14:24 16.29872 103.46033 9819 ft 292 kts 88°
2026-05-05 14:24 16.29947 103.48168 9415 ft 290 kts 88°
2026-05-05 14:24 16.30017 103.50171 9278 ft 270 kts 88°
2026-05-05 14:24 16.30087 103.52060 9116 ft 253 kts 88°
2026-05-05 14:25 16.30152 103.53867 8775 ft 247 kts 88°
2026-05-05 14:25 16.30214 103.55643 8360 ft 244 kts 88°
2026-05-05 14:25 16.30274 103.57400 7933 ft 242 kts 88°
2026-05-05 14:25 16.30332 103.59143 7521 ft 240 kts 88°
2026-05-05 14:26 16.30390 103.60874 7113 ft 238 kts 88°
2026-05-05 14:26 16.30448 103.62586 6706 ft 236 kts 88°
2026-05-05 14:26 16.30506 103.64287 6301 ft 234 kts 88°
2026-05-05 14:26 16.30563 103.65946 6099 ft 222 kts 89°
2026-05-05 14:27 16.30555 103.67494 5991 ft 205 kts 92°
2026-05-05 14:27 16.30499 103.68944 5656 ft 198 kts 93°
2026-05-05 14:27 16.30430 103.70372 5256 ft 197 kts 93°
2026-05-05 14:27 16.30362 103.71787 4851 ft 195 kts 93°
2026-05-05 14:28 16.30295 103.73193 4470 ft 193 kts 93°
2026-05-05 14:28 16.30229 103.74583 4135 ft 190 kts 93°
2026-05-05 14:28 16.30136 103.75958 3986 ft 191 kts 102°
2026-05-05 14:28 16.29559 103.77187 3886 ft 192 kts 131°
2026-05-05 14:29 16.28465 103.77968 3673 ft 194 kts 161°
2026-05-05 14:29 16.27126 103.78085 3386 ft 195 kts 182°
2026-05-05 14:29 16.25793 103.78011 3109 ft 194 kts 181°
2026-05-05 14:29 16.24458 103.77947 2819 ft 189 kts 181°
2026-05-05 14:30 16.23175 103.77889 2567 ft 180 kts 181°
2026-05-05 14:30 16.21975 103.77833 2328 ft 166 kts 180°
2026-05-05 14:30 16.20853 103.77781 2093 ft 158 kts 180°
2026-05-05 14:30 16.19761 103.77732 1876 ft 156 kts 180°
2026-05-05 14:31 16.18688 103.77684 1666 ft 153 kts 180°
2026-05-05 14:31 16.17627 103.77637 1458 ft 152 kts 180°
2026-05-05 14:31 16.16572 103.77591 1282 ft 151 kts 181°
2026-05-05 14:31 16.15528 103.77545 1083 ft 149 kts 182°
2026-05-05 14:32 16.14497 103.77501 884 ft 147 kts 183°
2026-05-05 14:32 16.13475 103.77458 658 ft 145 kts 183°
2026-05-05 14:32 16.12461 103.77411 485 ft 145 kts 184°
2026-05-05 14:32 16.11516 103.77362 458 ft 114 kts 178°
2026-05-05 14:33 16.10981 103.77350 461 ft 59 kts 184°
2026-05-05 14:33 16.10778 103.77373 461 ft 19 kts 178°
2026-05-05 14:33 16.10795 103.77337 462 ft 11 kts 355°
2026-05-05 14:33 16.10928 103.77334 461 ft 23 kts 355°
2026-05-05 14:34 16.11082 103.77331 461 ft 22 kts
2026-05-05 14:34 16.11247 103.77351 459 ft 26 kts
2026-05-05 14:34 16.11433 103.77368 457 ft 25 kts
2026-05-05 14:34 16.11534 103.77438 459 ft 18 kts 81°
2026-05-05 14:35 16.11534 103.77567 459 ft 18 kts 91°
2026-05-05 14:35 16.11543 103.77674 459 ft 11 kts 59°
2026-05-05 14:35 16.11558 103.77729 459 ft 0 kts 90°